Change the Weather History Date:

Wednesday, December 4, 2013

  Actual Average (KCIU) Record (KCIU)
Temperature  
Mean Temperature 32 °F -  
Max Temperature 42 °F 33 °F 60 °F (1982)
Min Temperature 25 °F 18 °F 4 °F (1989)
Degree Days  
Heating Degree Days 32    
Moisture  
Dew Point 28 °F    
Average Humidity 94    
Maximum Humidity 100    
Minimum Humidity 90    
Precipitation  
Precipitation 0.00 in - - ()
Sea Level Pressure  
Sea Level Pressure 29.86 in    
Wind  
Wind Speed 8 mph (ENE)    
Max Wind Speed 16 mph    
Max Gust Speed 28 mph    
Visibility 5 miles    
Events Rain , Snow    
Averages and records for this station are not official NWS values.
T = Trace of Precipitation, MM = Missing Value Source: NWS Daily Summary

Daily Weather History Graph

Daily Weather History Graph

Search for Another Location

Airport or City:

Trip Planner

Search our weather history database for the weather conditions in past years. The results will help you decide how hot, cold, wet, or windy it might be!

Date:

Astronomy

Dec. 04, 2013 Rise Set
Actual Time 8:00 AM EST 4:50 PM EST
Civil Twilight 7:26 AM EST 5:24 PM EST
Nautical Twilight 6:48 AM EST 6:01 PM EST
Astronomical Twilight 6:12 AM EST 6:38 PM EST
Moon 9:25 AM EST (12/4) 7:02 PM EST (12/4)
Length of Visible Light 9h 58m
Length of Day
8h 50m
Waxing Crescent, 4% of the Moon is Illuminated
Dec 4
Waxing Crescent
Dec 9
First Quarter
Dec 17
Full
Dec 25
Last Quarter
Jan 1
New

Hourly Weather History & Observations

Time (EST) Temp. Windchill Dew Point Humidity Pressure Visibility Wind Dir Wind Speed Gust Speed Precip Events Conditions
12:17 AM 27.9 °F 21.5 °F 25.7 °F 92% 29.98 in 2.5 mi East 5.8 mph - N/A Snow Light Snow
12:37 AM 27.9 °F 21.5 °F 25.9 °F 92% 29.98 in 3.0 mi East 5.8 mph - N/A Snow Light Snow
12:57 AM 27.5 °F 20.2 °F 25.3 °F 92% 29.98 in 5.0 mi East 6.9 mph - N/A Snow Light Snow
1:17 AM 27.5 °F 20.2 °F 25.5 °F 92% 29.98 in 4.0 mi ENE 6.9 mph - N/A Snow Light Snow
1:37 AM 27.5 °F 20.2 °F 26.1 °F 94% 29.98 in 1.5 mi NE 6.9 mph - N/A Snow Light Snow
1:57 AM 27.0 °F 18.0 °F 25.3 °F 94% 29.98 in 1.8 mi NE 9.2 mph - N/A Snow Light Snow
2:17 AM 26.6 °F 20.0 °F 25.2 °F 94% 29.98 in 2.0 mi NE 5.8 mph - N/A Snow Light Snow
2:37 AM 26.4 °F 18.0 °F 24.8 °F 94% 29.98 in 3.0 mi NE 8.1 mph - N/A Snow Light Snow
2:57 AM 26.1 °F 16.8 °F 24.3 °F 93% 29.98 in 1.8 mi NE 9.2 mph - N/A Snow Light Snow
3:17 AM 25.7 °F 17.1 °F 23.9 °F 93% 29.98 in 2.0 mi NE 8.1 mph - N/A Snow Light Snow
3:36 AM 25.7 °F 17.1 °F 23.9 °F 93% 29.97 in 2.5 mi NE 8.1 mph - N/A Snow Light Snow
3:57 AM 25.7 °F 16.4 °F 23.9 °F 93% 29.96 in 3.0 mi NE 9.2 mph - N/A Snow Light Snow
4:17 AM 25.7 °F 18.0 °F 23.7 °F 92% 29.97 in 5.0 mi ENE 6.9 mph - N/A Snow Light Snow
4:37 AM 25.7 °F 17.1 °F 23.5 °F 92% 29.97 in 7.0 mi NE 8.1 mph - N/A Snow Light Snow
4:57 AM 25.7 °F 18.0 °F 23.4 °F 91% 29.97 in 5.0 mi NE 6.9 mph - N/A Snow Light Snow
5:17 AM 25.7 °F 17.1 °F 23.4 °F 91% 29.98 in 5.0 mi NE 8.1 mph - N/A Snow Light Snow
5:37 AM 25.7 °F 17.1 °F 23.5 °F 92% 29.99 in 3.0 mi NE 8.1 mph - N/A Snow Light Snow
5:57 AM 25.7 °F 16.4 °F 23.4 °F 91% 29.98 in 2.5 mi NE 9.2 mph - N/A Snow Light Snow
6:17 AM 25.5 °F 16.9 °F 23.4 °F 92% 29.99 in 2.5 mi NE 8.1 mph - N/A Snow Light Snow
6:37 AM 25.5 °F 16.2 °F 23.0 °F 90% 29.99 in 5.0 mi NE 9.2 mph - N/A Snow Light Snow
6:57 AM 25.5 °F 16.2 °F 23.0 °F 90% 29.97 in 4.0 mi ENE 9.2 mph 16.1 mph N/A Snow Light Snow
7:17 AM 25.5 °F 17.8 °F 23.0 °F 90% 29.97 in 4.0 mi ENE 6.9 mph - N/A Snow Light Snow
7:37 AM 25.7 °F 15.7 °F 23.4 °F 91% 29.97 in 10.0 mi ENE 10.4 mph 16.1 mph N/A   Overcast
7:57 AM 26.2 °F 17.8 °F 23.7 °F 90% 29.98 in 10.0 mi ENE 8.1 mph - N/A   Overcast
8:17 AM 26.4 °F 16.6 °F 23.9 °F 90% 29.98 in 10.0 mi NE 10.4 mph - N/A   Overcast
8:37 AM 26.6 °F 20.0 °F 24.4 °F 92% 29.98 in 10.0 mi ENE 5.8 mph 16.1 mph N/A   Overcast
8:57 AM 27.1 °F 17.5 °F 24.6 °F 90% 29.96 in 10.0 mi ENE 10.4 mph 16.1 mph N/A   Overcast
9:17 AM 27.3 °F 17.7 °F 24.8 °F 90% 29.96 in 10.0 mi ENE 10.4 mph 21.9 mph N/A   Overcast
9:37 AM 27.5 °F 18.0 °F 25.2 °F 91% 29.97 in 10.0 mi ENE 10.4 mph 20.7 mph N/A   Overcast
9:57 AM 27.7 °F 18.8 °F 25.3 °F 91% 29.96 in 10.0 mi ENE 9.2 mph 16.1 mph N/A   Overcast
10:17 AM 28.0 °F 17.5 °F 25.3 °F 90% 29.97 in 10.0 mi East 12.7 mph 18.4 mph N/A   Overcast
10:37 AM 28.2 °F 21.0 °F 25.5 °F 90% 29.96 in 10.0 mi ENE 6.9 mph 18.4 mph N/A   Overcast
10:57 AM 28.4 °F 19.1 °F 25.7 °F 90% 29.95 in 4.0 mi ENE 10.4 mph 19.6 mph N/A Snow Light Snow
11:17 AM 28.8 °F 21.7 °F 26.2 °F 90% 29.95 in 7.0 mi East 6.9 mph - N/A Snow Light Snow
11:37 AM 28.9 °F 19.2 °F 26.4 °F 90% 29.94 in 5.0 mi ENE 11.5 mph 17.3 mph N/A Snow Light Snow
11:56 AM 29.1 °F 22.1 °F 26.6 °F 90% 29.94 in 4.0 mi ENE 6.9 mph - N/A Snow Light Snow
12:17 PM 29.3 °F 21.5 °F 27.1 °F 92% 29.93 in 4.0 mi East 8.1 mph 19.6 mph N/A Snow Light Snow
12:37 PM 29.7 °F 22.0 °F 27.5 °F 92% 29.93 in 7.0 mi ENE 8.1 mph 16.1 mph N/A Snow Light Snow
12:57 PM 29.8 °F 20.9 °F 27.9 °F 92% 29.90 in 7.0 mi East 10.4 mph 19.6 mph N/A Snow Light Snow
1:17 PM 30.2 °F 21.9 °F 28.4 °F 93% 29.90 in 5.0 mi East 9.2 mph 16.1 mph N/A   Overcast
1:37 PM 30.2 °F 22.6 °F 28.4 °F 93% 29.87 in 7.0 mi ENE 8.1 mph 17.3 mph N/A   Overcast
1:57 PM 30.2 °F 21.3 °F 28.4 °F 93% 29.87 in 10.0 mi East 10.4 mph 16.1 mph N/A   Overcast
2:17 PM 30.2 °F 22.6 °F 28.4 °F 93% 29.87 in 10.0 mi ENE 8.1 mph 18.4 mph N/A   Overcast
2:37 PM 30.2 °F 22.6 °F 28.9 °F 95% 29.86 in 5.0 mi East 8.1 mph 16.1 mph N/A   Overcast
2:57 PM 30.6 °F 22.4 °F 29.3 °F 95% 29.86 in 5.0 mi East 9.2 mph 19.6 mph N/A   Overcast
3:17 PM 30.7 °F 23.3 °F 29.5 °F 95% 29.86 in 7.0 mi East 8.1 mph - N/A   Overcast
3:37 PM 30.6 °F 22.4 °F 29.3 °F 95% 29.83 in 10.0 mi East 9.2 mph 20.7 mph N/A   Overcast
3:57 PM 30.9 °F 25.2 °F 29.8 °F 96% 29.86 in 10.0 mi East 5.8 mph 18.4 mph N/A   Overcast
4:17 PM 30.9 °F 22.8 °F 29.8 °F 96% 29.86 in 10.0 mi East 9.2 mph - N/A   Overcast
4:37 PM 30.9 °F 23.5 °F 30.0 °F 96% 29.84 in 5.0 mi ENE 8.1 mph 17.3 mph N/A   Overcast
4:57 PM 30.9 °F 23.5 °F 30.2 °F 97% 29.82 in 5.0 mi East 8.1 mph 18.4 mph N/A   Overcast
5:17 PM 31.1 °F 22.4 °F 30.7 °F 99% 29.81 in 7.0 mi East 10.4 mph 19.6 mph N/A   Overcast
5:37 PM 31.5 °F 21.8 °F 30.9 °F 98% 29.80 in 5.0 mi East 12.7 mph 23.0 mph N/A   Overcast
5:57 PM 31.5 °F 22.9 °F 30.9 °F 98% 29.78 in 3.0 mi East 10.4 mph 23.0 mph N/A   Overcast
6:17 PM 31.8 °F 21.4 °F 31.5 °F 99% 29.77 in 2.0 mi East 15.0 mph 24.2 mph N/A   Overcast
6:37 PM 31.8 °F 22.3 °F 31.5 °F 99% 29.76 in 1.8 mi East 12.7 mph 25.3 mph N/A   Overcast
6:57 PM 32.0 °F 23.0 °F 32.0 °F 100% 29.75 in 1.5 mi East 11.5 mph 26.5 mph N/A   Overcast
7:17 PM 32.0 °F 23.0 °F 32.0 °F 100% 29.73 in 1.2 mi East 11.5 mph 20.7 mph N/A   Overcast
7:37 PM 32.4 °F 23.5 °F 32.2 °F 99% 29.71 in 1.2 mi East 11.5 mph 23.0 mph N/A   Overcast
7:57 PM 32.5 °F 21.9 °F 32.4 °F 99% 29.69 in 2.0 mi East 16.1 mph 23.0 mph N/A   Overcast
8:17 PM 32.9 °F 24.7 °F 32.5 °F 99% 29.67 in 2.5 mi East 10.4 mph 18.4 mph N/A   Overcast
8:37 PM 32.9 °F 23.7 °F 32.9 °F 100% 29.65 in 2.0 mi East 12.7 mph 21.9 mph N/A   Overcast
8:57 PM 33.3 °F 25.1 °F 33.1 °F 99% 29.64 in 4.0 mi ESE 10.4 mph 18.4 mph N/A   Overcast
9:17 PM 33.8 °F 25.8 °F 33.4 °F 99% 29.62 in 4.0 mi East 10.4 mph 18.4 mph N/A Snow Light Snow
9:37 PM 34.0 °F 25.5 °F 33.6 °F 99% 29.59 in 7.0 mi East 11.5 mph 17.3 mph N/A   Overcast
9:57 PM 34.7 °F 27.5 °F 34.2 °F 98% 29.58 in 7.0 mi East 9.2 mph 19.6 mph N/A Rain Light Rain
10:17 PM 35.6 °F 29.9 °F 35.1 °F 98% 29.56 in 3.0 mi East 6.9 mph 20.7 mph N/A Rain Light Rain
10:37 PM 36.1 °F 28.2 °F 35.4 °F 97% 29.54 in 4.0 mi East 11.5 mph 18.4 mph N/A Rain Light Rain
10:57 PM 37.0 °F 28.9 °F 36.5 °F 98% 29.53 in 2.5 mi ESE 12.7 mph 17.3 mph N/A Rain Light Rain
11:17 PM 39.2 °F 31.2 °F 38.7 °F 98% 29.51 in 4.0 mi SSE 13.8 mph 23.0 mph N/A Rain Light Rain
11:37 PM 40.8 °F 33.3 °F 40.1 °F 97% 29.49 in 3.0 mi SE 13.8 mph 27.6 mph N/A Rain Light Rain
11:57 PM 41.5 °F 34.2 °F 41.0 °F 98% 29.48 in 3.0 mi SE 13.8 mph 26.5 mph N/A Rain Light Rain